McCook, NE

9:47 AM CDT on June 25, 2017 (GMT -0500)
McCook Municipal

Weather History for KMCK - March, 2015

Change the Weather History Date:

Wednesday, March 25, 2015

  Actual Average Record
Temperature  
Mean Temperature 40 °F 42 °F  
Max Temperature 53 °F 57 °F 88 °F (1910)
Min Temperature 27 °F 27 °F 0 °F (1965)
Degree Days  
Heating Degree Days 22    
Moisture  
Dew Point 28 °F    
Average Humidity 56    
Maximum Humidity 82    
Minimum Humidity 27    
Precipitation  
Precipitation 0.02 in 0.05 in 0.27 in (1987)
Month to date precipitation 0.03 1.06  
Year to date precipitation 0.37 2.19  
Sea Level Pressure  
Sea Level Pressure 30.10 in    
Wind  
Wind Speed 11 mph (NNW)    
Max Wind Speed 21 mph    
Max Gust Speed 29 mph    
Visibility 10 miles    
Events Rain    
T = Trace of Precipitation, MM = Missing Value Source: NWS Daily Summary

Daily Weather History Graph

Daily Weather History Graph

Search for Another Location

Airport or City:

Trip Planner

Search our weather history database for the weather conditions in past years. The results will help you decide how hot, cold, wet, or windy it might be!

Date:

Astronomy

Mar. 25, 2015 Rise Set
Actual Time 7:37 AM CDT 7:59 PM CDT
Civil Twilight 7:10 AM CDT 8:26 PM CDT
Nautical Twilight 6:38 AM CDT 8:58 PM CDT
Astronomical Twilight 6:06 AM CDT 9:31 PM CDT
Moon 11:25 AM CDT 1:07 AM CDT
Length of Visible Light 13h 15m
Length of Day
12h 21m
Waxing Crescent, 34% of the Moon is Illuminated
Mar 25
Waxing Crescent
Mar 27
First Quarter
Apr 4
Full
Apr 11
Last Quarter
Apr 18
New

Hourly Weather History & Observations

Time (CDT) Temp. Windchill Dew Point Humidity Pressure Visibility Wind Dir Wind Speed Gust Speed Precip Events Conditions
12:53 AM 53.1 °F - 19.9 °F 27% 29.88 in 10.0 mi West 6.9 mph - N/A   Partly Cloudy
1:53 AM 52.0 °F - 27.0 °F 38% 29.88 in 10.0 mi WNW 10.4 mph - N/A   Overcast
2:53 AM 50.0 °F - 30.0 °F 46% 29.91 in 10.0 mi WNW 5.8 mph - N/A   Partly Cloudy
3:53 AM 48.9 °F - 30.9 °F 50% 29.90 in 10.0 mi WNW 5.8 mph - N/A   Partly Cloudy
4:53 AM 45.0 °F 41.8 °F 30.9 °F 58% 29.91 in 10.0 mi West 5.8 mph - N/A   Partly Cloudy
5:53 AM 43.0 °F 38.2 °F 30.0 °F 60% 29.93 in 10.0 mi WNW 8.1 mph - N/A   Scattered Clouds
6:53 AM 45.0 °F 40.6 °F 32.0 °F 60% 29.96 in 10.0 mi WNW 8.1 mph - N/A   Scattered Clouds
7:53 AM 43.0 °F 38.2 °F 33.1 °F 68% 29.98 in 10.0 mi NW 8.1 mph - N/A   Partly Cloudy
8:53 AM 48.9 °F - 33.1 °F 54% 30.01 in 10.0 mi NNE 16.1 mph - N/A   Mostly Cloudy
9:53 AM 46.0 °F 38.5 °F 30.9 °F 56% 30.05 in 10.0 mi NNE 19.6 mph 28.8 mph N/A   Overcast
10:53 AM 44.1 °F 37.4 °F 33.1 °F 65% 30.12 in 10.0 mi NNE 13.8 mph - N/A   Overcast
11:53 AM 41.0 °F 32.8 °F 30.2 °F 65% 30.14 in 8.0 mi NNE 16.1 mph 26.5 mph N/A Rain Light Rain
12:53 PM 41.0 °F 32.2 °F 32.0 °F 70% 30.17 in 10.0 mi NNE 18.4 mph - N/A Rain Light Rain
1:01 PM 41.0 °F 33.1 °F 32.0 °F 70% 30.17 in 10.0 mi North 15.0 mph - 0.00 in   Overcast
1:31 PM 39.9 °F 30.8 °F 33.1 °F 77% 30.18 in 10.0 mi North 18.4 mph - 0.00 in Rain Light Rain
1:53 PM 39.0 °F 30.6 °F 34.0 °F 82% 30.21 in 6.0 mi North 15.0 mph - 0.01 in Rain Light Rain
2:30 PM 41.0 °F 32.8 °F 34.0 °F 76% 30.18 in 10.0 mi North 16.1 mph - 0.01 in Rain Light Rain
2:53 PM 43.0 °F 35.7 °F 33.1 °F 68% 30.19 in 10.0 mi North 15.0 mph - 0.01 in   Overcast
3:53 PM 45.0 °F 38.2 °F 28.9 °F 53% 30.19 in 10.0 mi North 15.0 mph - N/A   Overcast
4:53 PM 46.9 °F - 27.0 °F 46% 30.20 in 10.0 mi NNW 20.7 mph 25.3 mph N/A   Overcast
5:53 PM 48.0 °F - 24.1 °F 39% 30.19 in 10.0 mi North 19.6 mph - N/A   Clear
6:53 PM 50.0 °F - 21.9 °F 33% 30.18 in 10.0 mi North 18.4 mph - N/A   Clear
7:53 PM 45.0 °F 39.7 °F 21.9 °F 40% 30.21 in 10.0 mi North 10.4 mph - N/A   Clear
8:53 PM 37.0 °F 31.0 °F 21.0 °F 52% 30.24 in 10.0 mi North 8.1 mph - N/A   Clear
9:53 PM 33.1 °F 26.9 °F 19.9 °F 59% 30.28 in 10.0 mi North 6.9 mph - N/A   Clear
10:53 PM 36.0 °F 31.1 °F 19.9 °F 52% 30.28 in 10.0 mi North 5.8 mph - N/A   Clear
11:53 PM 30.9 °F - 19.9 °F 64% 30.30 in 10.0 mi Calm Calm - N/A   Clear